OBJECT AE, 62405

Orbit data source: Space-Track

You're viewing an Uncataloged Satellite

Recently launched and/or uncataloged satellites may have evolving metadata. Metadata may include but not limited to: Owner, Maufacturer, Bus, Motor, and Mission.

OBJECT AE, 62405 is a satellite in LEO that was launched on Sat, 21 Dec 2024 UTC via an FALCON 9 launch vehicle from the Air Force Western Test Range (AFWTR). Unknown objects in Earth's orbit typically refer to objects detected orbiting the Earth but have not yet been identified or cataloged. These objects could be anything from previously untracked satellites, spent rocket stages, debris from satellite collisions, or even natural meteoroids temporarily captured by Earth's gravity.

Loading next visibility...
Identifier
62405, 2024-247AE
Orbit
LEO
Country
Flag of TBDTBD
Related business
None
Manufacturer
Unknown
Mission
Operational Commercial Communications
Bus & Motor
Unknown
Mass
Unknown
Launch date (UTC)
2024-12-21 (1 year ago)
Launch vehicle
FALCON 9
Launch site
Air Force Western Test Range (AFWTR)
Object type
Unknown
Shape & HBR
Box, 0.1 m
Radar Cross Section
0.004 m², Small (<0.1 m²)

Expand to show TLE details & history
Last TLE update: 17 hours ago

TLE from 17 hours ago
0 OBJECT AE
1 62405U 24247AE  26093.86160011  .00101336  00000-0  15987-2 0  9995
2 62405  44.9767 301.2655 0009141 214.2223 145.8081 15.52489015 71442
Epoch: 2026-04-03T20:40Z
TLE epoch observation values (Epoch: 2026-04-03T20:40:42.249Z)
Latitude
-0.00002°
Longitude
158.8998°
Altitude
414.591 km
Speed
7.661 km/s
True Right ascension
20h 05m 03s
True Declination
0° 00' 00"
Sunlit
Object was in daylight at epoch
Visualization orbit readout
Latitude
Unknown
Longitude
Unknown
Altitude
Unknown
Speed
Unknown
Apparent Right ascension
Unknown
Apparent Declination
Unknown
Sunlit
N/A
Visualization observer readout
Local Sidereal Time
19:15:57
Azimuth
Unknown
Elevation
Unknown
Doppler factor
Unknown
Orbital elements
Apogee altitude
417.298 km
Perigee altitude
404.886 km
Semi-major axis
6,789.229 km
Eccentricity
0.00091
Inclination
44.9767°
RAAN
301.2655°
Arg. of periapsis
214.2223°
True anomaly
145.86691°
Mean anomaly
145.8081°
Eccentric anomaly
145.83751°
Mean motion
3.87983 °/min
Orbital period
92.79 mins
BSTAR
0.0015987
Loading maneuver chart data...
Computing Atmospheric mass density...
Loading historical data...
Loading historical data...
Loading historical data...
Loading historical data...
Loading historical data...
Loading historical data...
Loading historical data...

Documentation

Showing up to 5 results
|